Voltar ao catálogo

COSMOS 1275 DEB

LostPO
NORAD 42138·DEBRIS·🇷🇺 Russia

Lançado Jun 4, 1981 de Plesetsk Cosmodrome

Loading…

Próximas Passagens (próximas 24 horas)

TLE

ObsoletoSource: Space-Track

Época: Dec 18, 2021, 00:20 UTC

1 42138U 81053RA  21352.01388928  .00001136  00000-0  93641-3 0  9994
2 42138  83.1434  84.7373 0103285 293.7342  65.3012 13.85961393943140

Acompanhe COSMOS 1275 DEB em tempo real com AllMySat

Download on the App Store